Back to catalog

THORAD AGENA D DEB

AliveLEO
NORAD 5446·DEBRIS·🇺🇸 United States

Launched Apr 8, 1970 from Vandenberg Space Force Base

Loading…

Next Passes (next 24 hours)

TLE

FreshSource: Space-Track

Epoch: Sep 14, 2026, 04:00 UTC

1 05446U 70025LE  26257.16674002  .00001730  00000-0  17861-2 0  9997
2 05446 100.4379 135.6286 0085045  25.7971 125.3882 13.76047170787905

Track THORAD AGENA D DEB in real time with AllMySat

Download on the App Store